Zurück zum Katalog

CZ-6A DEB

AktivPO
NORAD 60963·DEBRIS·🇨🇳 China

Gestartet Aug 6, 2024 von Taiyuan Satellite Launch Center

Loading…

Nächste Überflüge (nächste 24 Stunden)

TLE

AktuellSource: Space-Track

Epoche: Sep 14, 2026, 06:41 UTC

1 60963U 24140LN  26257.27911764  .00000774  00000-0  17323-3 0  9991
2 60963  89.0146 261.7167 0104384 324.4663  34.9622 14.52389821110553

Verfolge CZ-6A DEB in Echtzeit mit AllMySat

Download on the App Store